Kosmos-2522

operational
NORAD ID: 42939 Int'l Des: 2017-055 Owner: VVKOV/IACG Country: RU Constellation: GLONASS
MEOCIRCULAR

关于 Kosmos-2522

正在加载描述...

实时位置

正在加载3D地球...

即将过境

高度历史

Altitude vs Time

uPlot chart will show altitude changes over time

两行轨道根数

1 42939U 17055A 25295.20865734 .00000024 00000-0 00000-0 0 9999
2 42939 64.0761 199.9830 0007850 233.7433 126.2411 2.13102006 62906
Epoch: Oct 22, 2025 • Age: 99 hours

当前状态

高度 19139.5 km
速度 3.95 km/s
星下点 -61.83°S, 18.68°W
发射日期 Sep 22, 2017
运行时间 8 years
类型 other

技术详情

分类 Payload
质量 1450.00 kg
干质量 1200.00 kg
总质量 1450.00 kg
长度 4.00 m
直径 1.50 m
跨度 7.80 m
形状 Cyl + Ant + 2 Pan
制造商 RESH
平台类型 Uragan
阶段状态 In Orbit
所有者/国家 VVKOV/IACG/RU

大型星座

Loading constellations...